Weather History for Staunton, VA

Change the Weather History Date:

Monday, April 1, 2013

  Actual Average Record
Temperature  
Mean Temperature 49 °F -  
Max Temperature 62 °F 63 °F 78 °F (1998)
Min Temperature 36 °F 38 °F 29 °F (2014)
Degree Days  
Heating Degree Days 16    
Moisture  
Dew Point 33 °F    
Average Humidity 58    
Maximum Humidity 87    
Minimum Humidity 31    
Precipitation  
Precipitation 0.00 in - - ()
Sea Level Pressure  
Sea Level Pressure 29.86 in    
Wind  
Wind Speed 5 mph (West)    
Max Wind Speed 22 mph    
Max Gust Speed 29 mph    
Visibility 10 miles    
Events Rain    
Averages and records for this station are not official NWS values.
T = Trace of Precipitation, MM = Missing Value Source: NWS Daily Summary

Daily Weather History Graph

Daily Weather History Graph

Search for Another Location

Airport:

Trip Planner

Search our weather history database for the weather conditions in past years. The results will help you decide how hot, cold, wet, or windy it might be!

Date:

Astronomy

Apr. 01, 2013 Rise Set
Actual Time 7:00 AM EDT 7:39 PM EDT
Civil Twilight 6:33 AM EDT 8:05 PM EDT
Nautical Twilight 6:02 AM EDT 8:37 PM EDT
Astronomical Twilight 5:30 AM EDT 9:09 PM EDT
Moon 12:41 AM EDT (4/1) 10:48 AM EDT (4/1)
Length of Visible Light 13h 32m
Length of Day
12h 38m
Waning Gibbous, 67% of the Moon is Illuminated
Apr 1
Waning Gibbous
Apr 3
Last Quarter
Apr 10
New
Apr 18
First Quarter
Apr 25
Full

Hourly Weather History & Observations

Time (EDT) Temp. Windchill Dew Point Humidity Pressure Visibility Wind Dir Wind Speed Gust Speed Precip Events Conditions
12:15 AM 48.6 °F - 42.4 °F 79% 29.80 in 10.0 mi Calm Calm - N/A   Scattered Clouds
12:35 AM 47.7 °F - 41.4 °F 79% 29.81 in 10.0 mi Calm Calm - N/A   Scattered Clouds
12:55 AM 47.3 °F - 41.5 °F 80% 29.81 in 10.0 mi Calm Calm - N/A   Clear
1:15 AM 44.1 °F - 40.1 °F 86% 29.82 in 10.0 mi Calm Calm - N/A   Clear
1:35 AM 47.8 °F - 38.8 °F 71% 29.82 in 10.0 mi Calm Calm - N/A   Clear
1:55 AM 47.3 °F - 37.8 °F 69% 29.83 in 10.0 mi Calm Calm - N/A   Clear
2:15 AM 46.6 °F - 37.4 °F 70% 29.84 in 10.0 mi Calm Calm - N/A   Clear
2:35 AM 47.3 °F - 36.3 °F 66% 29.84 in 10.0 mi Calm Calm - N/A   Clear
2:55 AM 47.1 °F - 35.1 °F 63% 29.83 in 10.0 mi West 3.5 mph - N/A   Clear
3:15 AM 43.0 °F - 35.1 °F 74% 29.83 in 10.0 mi Calm Calm - N/A   Clear
3:35 AM 44.2 °F - 34.9 °F 70% 29.82 in 10.0 mi Calm Calm - N/A   Clear
3:55 AM 43.9 °F 41.3 °F 33.4 °F 67% 29.83 in 10.0 mi SW 4.6 mph - N/A   Clear
4:15 AM 44.1 °F - 34.0 °F 68% 29.83 in 10.0 mi Calm Calm - N/A   Clear
4:35 AM 43.7 °F - 34.9 °F 71% 29.83 in 10.0 mi Calm Calm - N/A   Clear
4:55 AM 40.6 °F - 34.2 °F 78% 29.82 in 10.0 mi Calm Calm - N/A   Clear
5:15 AM 39.0 °F - 32.4 °F 77% 29.82 in 10.0 mi Calm Calm - N/A   Clear
5:35 AM 39.2 °F 35.0 °F 33.8 °F 81% 29.81 in 10.0 mi SSE 5.8 mph - N/A   Clear
5:55 AM 39.4 °F - 33.8 °F 80% 29.81 in 10.0 mi Calm Calm - N/A   Clear
6:15 AM 36.9 °F - 32.9 °F 86% 29.82 in 10.0 mi Calm Calm - N/A   Clear
6:35 AM 36.3 °F - 32.0 °F 84% 29.83 in 10.0 mi Calm Calm - N/A   Clear
6:55 AM 36.9 °F - 32.7 °F 85% 29.83 in 10.0 mi Calm Calm - N/A   Clear
7:15 AM 38.8 °F - 34.9 °F 86% 29.83 in 10.0 mi Calm Calm - N/A   Clear
7:35 AM 36.7 °F - 32.4 °F 84% 29.83 in 10.0 mi Calm Calm - N/A   Scattered Clouds
7:55 AM 41.2 °F - 35.6 °F 81% 29.84 in 10.0 mi Calm Calm - N/A   Scattered Clouds
8:15 AM 40.6 °F - 37.0 °F 87% 29.84 in 10.0 mi Calm Calm - N/A   Clear
8:35 AM 45.1 °F - 39.4 °F 80% 29.83 in 10.0 mi Calm Calm - N/A   Clear
8:55 AM 48.9 °F - 41.4 °F 75% 29.84 in 10.0 mi SW 5.8 mph - N/A   Clear
9:15 AM 53.8 °F - 42.4 °F 65% 29.84 in 10.0 mi WSW 10.4 mph - N/A   Scattered Clouds
9:35 AM 56.3 °F - 42.1 °F 59% 29.83 in 10.0 mi WSW 11.5 mph - N/A   Mostly Cloudy
9:55 AM 56.1 °F - 41.2 °F 57% 29.83 in 10.0 mi WSW 11.5 mph 17.3 mph N/A   Scattered Clouds
10:15 AM 57.6 °F - 42.1 °F 56% 29.82 in 10.0 mi SW 8.1 mph - N/A   Scattered Clouds
10:35 AM 58.5 °F - 40.8 °F 52% 29.82 in 10.0 mi WSW 8.1 mph 17.3 mph N/A   Scattered Clouds
10:55 AM 57.2 °F - 39.9 °F 52% 29.83 in 10.0 mi WSW 9.2 mph 19.6 mph N/A   Overcast
11:15 AM 57.4 °F - 39.4 °F 51% 29.83 in 10.0 mi West 13.8 mph 21.9 mph N/A   Overcast
11:35 AM 59.4 °F - 40.3 °F 49% 29.82 in 10.0 mi West 9.2 mph 19.6 mph N/A   Scattered Clouds
11:55 AM 60.4 °F - 39.2 °F 45% 29.81 in 10.0 mi WSW 16.1 mph 20.7 mph N/A   Clear
12:15 PM 62.1 °F - 38.8 °F 42% 29.81 in 10.0 mi WSW 13.8 mph 23.0 mph N/A   Scattered Clouds
12:35 PM 60.8 °F - 37.8 °F 42% 29.81 in 10.0 mi WSW 13.8 mph 21.9 mph N/A   Overcast
12:55 PM 54.5 °F - 41.5 °F 62% 29.82 in 10.0 mi West 13.8 mph 26.5 mph N/A Rain Light Rain
1:15 PM 57.7 °F - 42.4 °F 57% 29.82 in 10.0 mi West 6.9 mph - N/A   Mostly Cloudy
1:35 PM 56.8 °F - 37.4 °F 48% 29.82 in 10.0 mi WNW 13.8 mph 23.0 mph N/A   Mostly Cloudy
1:55 PM 56.7 °F - 35.6 °F 45% 29.82 in 10.0 mi West 16.1 mph 28.8 mph N/A   Overcast
2:15 PM 57.6 °F - 33.4 °F 40% 29.82 in 10.0 mi West 19.6 mph 28.8 mph N/A   Overcast
2:35 PM 60.6 °F - 29.5 °F 31% 29.81 in 10.0 mi WSW 19.6 mph 28.8 mph N/A   Overcast
2:55 PM 61.0 °F - 30.0 °F 31% 29.81 in 10.0 mi WSW 21.9 mph 28.8 mph N/A   Scattered Clouds
3:15 PM 60.8 °F - 30.4 °F 32% 29.81 in 10.0 mi West 16.1 mph 27.6 mph N/A   Scattered Clouds
3:35 PM 58.6 °F - 30.4 °F 34% 29.82 in 10.0 mi WNW 16.1 mph 23.0 mph N/A   Mostly Cloudy
3:55 PM 57.9 °F - 29.5 °F 34% 29.82 in 10.0 mi West 19.6 mph 28.8 mph N/A   Overcast
4:15 PM 58.5 °F - 30.6 °F 35% 29.83 in 10.0 mi West 16.1 mph 26.5 mph N/A   Scattered Clouds
4:35 PM 56.7 °F - 33.1 °F 41% 29.84 in 10.0 mi NW 17.3 mph 24.2 mph N/A   Mostly Cloudy
4:55 PM 56.3 °F - 32.9 °F 41% 29.85 in 10.0 mi WNW 17.3 mph 23.0 mph N/A   Mostly Cloudy
5:15 PM 55.0 °F - 32.0 °F 42% 29.85 in 10.0 mi WNW 17.3 mph 25.3 mph N/A   Mostly Cloudy
5:35 PM 52.2 °F - 32.0 °F 46% 29.88 in 10.0 mi NW 13.8 mph - N/A   Overcast
5:55 PM 51.6 °F - 31.3 °F 46% 29.88 in 10.0 mi WNW 16.1 mph 21.9 mph N/A   Mostly Cloudy
6:15 PM 50.5 °F - 30.0 °F 45% 29.89 in 10.0 mi NW 17.3 mph 25.3 mph N/A   Mostly Cloudy
6:35 PM 50.0 °F - 25.7 °F 39% 29.90 in 10.0 mi West 18.4 mph 25.3 mph N/A   Scattered Clouds
6:55 PM 47.8 °F - 27.3 °F 45% 29.91 in 10.0 mi WNW 9.2 mph 17.3 mph N/A   Scattered Clouds
7:15 PM 46.6 °F - 27.1 °F 47% 29.92 in 10.0 mi WNW 9.2 mph - N/A   Scattered Clouds
7:35 PM 46.0 °F 40.2 °F 25.2 °F 44% 29.93 in 10.0 mi NW 12.7 mph 17.3 mph N/A   Scattered Clouds
7:55 PM 45.3 °F 41.6 °F 25.7 °F 46% 29.94 in 10.0 mi NW 6.9 mph - N/A   Scattered Clouds
8:15 PM 44.4 °F 40.0 °F 25.7 °F 48% 29.95 in 10.0 mi WNW 8.1 mph - N/A   Scattered Clouds
8:35 PM 42.3 °F 40.5 °F 25.7 °F 52% 29.96 in 10.0 mi WNW 3.5 mph - N/A   Clear
8:55 PM 43.7 °F 39.7 °F 23.0 °F 44% 29.96 in 10.0 mi WNW 6.9 mph - N/A   Clear
9:15 PM 42.3 °F - 22.8 °F 46% 29.98 in 10.0 mi Calm Calm - N/A   Clear
9:35 PM 41.9 °F 40.0 °F 21.4 °F 44% 29.98 in 10.0 mi West 3.5 mph - N/A   Clear
9:55 PM 41.2 °F 39.2 °F 21.0 °F 45% 29.99 in 10.0 mi WNW 3.5 mph - N/A   Clear
10:15 PM 40.8 °F - 20.1 °F 44% 29.99 in 10.0 mi Calm Calm - N/A   Clear
10:35 PM 39.7 °F - 20.7 °F 46% 29.99 in 10.0 mi Calm Calm - N/A   Clear
10:55 PM 39.4 °F - 20.7 °F 47% 30.00 in 10.0 mi Calm Calm - N/A   Clear
11:15 PM 38.1 °F - 20.7 °F 49% 30.01 in 10.0 mi Calm Calm - N/A   Scattered Clouds
11:35 PM 37.8 °F - 20.8 °F 51% 30.01 in 10.0 mi Calm Calm - N/A   Mostly Cloudy
11:55 PM 36.7 °F - 21.6 °F 54% 30.01 in 10.0 mi Calm Calm - N/A   Overcast